Theta_e
301 293 290 295 297 298 297 295 294 297 301 298 297 297 299 302 302 302 302 304 305 306 309 311 314 318 321 322 323 323 321 326 325 324 326 338 344 349 350 350 351 347 347 346
296 292 298 301 301 299 298 295 293 297 301 297 295 295 299 301 301 301 303 303 305 306 308 310 315 315 315 316 318 318 320 321 323 329 326 328 335 342 349 352 350 350 349 347
293 298 304 301 298 297 296 294 294 294 299 298 296 293 296 301 302 303 304 305 306 306 306 311 311 311 312 314 314 316 319 321 322 322 325 325 324 325 332 343 349 350 350 349
296 302 301 300 298 298 291 299 299 298 294 286 295 285 293 298 300 303 304 303 304 306 308 309 309 309 311 312 313 312 316 322 320 321 323 322 322 320 323 326 333 343 349 350
296 298 298 297 298 300 295 300 297 297 292 289 292 286 290 297 297 300 302 305 305 305 307 307 308 309 310 310 310 316 320 318 319 323 325 322 322 321 320 320 322 327 330 346
298 303 300 299 302 301 301 297 295 293 289 283 289 289 289 294 298 302 307 307 307 306 305 307 308 308 308 309 309 312 312 315 321 320 320 320 320 323 324 324 325 326 326 327
295 297 300 302 296 299 296 290 282 281 281 282 293 290 292 299 305 306 304 305 304 304 304 304 305 305 306 305 307 311 310 311 312 319 318 321 322 321 322 324 326 327 327 327
289 289 300 304 298 294 294 291 283 278 280 285 295 288 293 303 306 307 310 306 304 303 303 304 304 304 304 304 307 310 311 311 314 316 317 317 321 321 320 322 324 326 327 329
289 291 302 304 304 301 296 291 295 289 289 284 289 293 299 304 304 305 306 305 301 303 303 304 305 305 305 306 306 309 309 308 311 315 318 323 321 318 321 322 323 324 328 330
297 290 299 302 304 303 298 301 290 289 280 279 287 289 291 298 301 303 303 302 301 301 300 302 302 304 305 306 308 309 308 311 313 316 316 317 316 317 321 319 322 324 326 329
296 293 294 298 295 294 296 295 294 293 291 281 280 286 299 300 302 301 302 303 300 299 300 301 302 303 305 306 307 307 309 311 310 314 314 314 316 319 319 320 320 323 323 323
298 293 287 292 298 300 296 296 296 288 285 287 285 288 303 302 301 302 303 303 303 303 303 303 302 302 304 305 306 306 308 310 311 312 314 314 316 317 317 317 315 317 317 321
297 290 283 287 292 299 295 297 297 296 293 288 284 285 301 302 302 303 302 303 305 304 304 303 304 304 305 305 307 308 307 306 309 310 310 310 310 315 314 315 314 315 314 314
300 290 288 283 288 294 292 295 296 295 288 287 288 291 294 297 298 299 299 300 301 302 304 304 303 304 305 307 307 307 307 307 309 309 307 309 309 311 313 314 314 314 314 313
296 287 290 291 294 294 292 292 294 293 293 288 291 291 295 296 296 297 299 300 300 300 301 301 301 301 302 303 304 304 305 306 306 306 307 308 310 311 312 314 314 315 313 313
297 287 290 289 293 292 290 293 293 293 294 294 294 293 298 298 299 299 298 299 299 299 300 301 301 302 302 302 302 303 303 303 304 304 304 306 307 309 308 311 314 313 312 311
293 288 286 282 290 290 286 292 293 293 295 295 290 294 297 296 297 296 297 297 297 298 299 299 300 300 300 301 302 301 302 303 302 301 302 304 305 307 308 308 312 311 309 309
292 288 287 284 285 278 290 299 299 296 296 297 296 296 296 296 297 297 298 295 296 297 298 298 298 299 298 299 299 300 300 300 300 300 300 302 303 304 306 306 309 309 309 308
295 290 284 279 279 288 291 296 295 292 293 296 294 295 296 297 296 295 298 298 297 297 298 298 298 298 298 298 298 298 297 297 298 298 299 301 302 301 303 302 306 308 308 308
295 294 286 282 280 278 291 299 302 299 287 297 296 294 294 294 287 291 296 297 297 298 297 296 296 296 295 294 295 294 295 296 295 295 298 300 300 300 300 301 303 306 310 310
289 288 284 284 282 285 296 300 302 286 286 296 296 294 293 290 290 294 297 297 297 296 296 295 294 293 293 294 294 292 293 293 296 297 297 298 299 299 301 304 304 306 307 310
287 286 284 286 283 280 300 299 291 294 297 295 295 294 292 293 294 295 295 295 295 294 293 293 292 291 292 292 291 290 291 294 295 295 295 296 297 299 301 301 302 305 304 307
288 292 287 289 289 298 301 297 301 299 296 296 293 293 294 293 292 294 293 293 292 292 291 292 290 289 290 291 291 290 291 293 293 293 294 296 297 299 300 300 302 303 303 306
296 299 291 291 296 298 299 301 300 298 295 295 296 295 293 292 293 293 292 291 290 290 289 289 288 288 288 290 291 291 292 293 293 292 293 295 297 296 299 301 303 303 304 305
294 295 292 293 294 297 299 299 299 296 297 297 295 294 294 293 292 292 289 289 288 288 288 288 287 287 288 290 291 292 293 293 292 293 294 295 297 298 299 301 301 304 305 305
295 292 288 288 294 294 295 297 297 296 296 294 293 294 294 293 291 290 287 287 287 286 287 287 287 288 289 290 291 293 295 295 293 293 294 296 298 299 300 299 301 298 297 296
Wind_Speed
7 3 6 11 10 10 10 10 8 9 9 6 16 11 10 10 8 9 9 9 10 10 11 9 9 9 9 9 9 7 6 5 4 2 2 3 4 4 5 7 7 10 9 13
6 7 11 12 14 15 16 13 11 8 7 5 5 5 8 6 5 7 10 10 11 8 8 4 10 8 8 8 7 6 5 4 3 1 2 2 2 4 4 5 8 11 9 15
9 12 17 15 12 9 8 6 4 5 9 7 7 8 6 5 5 9 10 9 8 11 8 10 9 9 8 7 6 6 4 3 1 3 3 4 4 3 3 4 7 8 12 13
8 12 14 13 10 4 6 9 8 6 7 6 3 9 7 5 10 16 15 12 11 10 10 9 10 8 9 6 5 3 1 5 2 0 1 1 2 5 4 4 5 7 13 16
7 6 8 9 8 7 9 9 8 4 4 3 6 3 5 6 12 14 12 21 13 12 12 10 10 9 8 6 4 5 4 0 3 2 1 2 4 4 4 5 8 9 9 13
8 10 6 9 11 4 6 7 5 4 1 6 5 5 7 10 16 7 5 10 11 12 10 10 8 9 7 6 4 3 4 2 3 3 5 6 7 7 5 6 10 12 11 11
7 8 10 8 8 7 6 4 3 5 4 6 10 11 12 8 7 6 7 10 10 10 9 8 8 7 6 4 2 3 3 2 5 5 6 7 7 8 8 8 8 12 13 13
3 6 6 7 4 3 4 4 6 8 5 6 8 5 6 12 9 5 14 13 8 9 7 6 6 6 4 5 4 5 5 4 6 7 8 7 7 4 4 6 8 10 12 14
4 11 6 12 12 5 6 4 4 4 1 1 5 8 8 8 12 9 9 7 8 8 8 8 8 7 7 7 8 8 6 7 6 7 5 2 3 5 6 6 7 11 14 14
2 2 2 6 12 8 4 7 4 4 2 4 5 5 3 10 11 8 10 6 5 5 2 2 5 7 7 8 7 8 6 6 5 5 5 5 6 6 4 5 9 11 13 12
5 2 1 4 4 6 4 5 4 3 7 6 3 6 7 5 4 6 8 9 9 6 5 6 7 8 8 7 7 8 6 6 6 6 5 5 6 6 4 3 6 8 12 10
5 2 2 7 11 11 6 6 6 0 5 3 3 8 10 12 3 6 11 8 8 7 8 8 8 3 5 2 5 4 5 6 7 6 6 7 6 6 5 4 4 4 6 9
5 2 3 6 6 6 5 7 8 6 3 5 4 7 8 5 6 8 8 10 12 8 9 6 4 5 3 3 3 5 5 5 7 7 6 6 7 7 6 5 3 4 6 8
5 1 3 5 8 2 4 7 6 3 3 2 7 14 9 11 13 9 8 8 8 7 9 13 14 14 15 14 13 13 10 8 11 11 8 8 8 7 7 7 5 4 4 6
2 3 5 7 11 14 14 15 15 13 12 11 15 15 15 9 9 9 8 10 10 9 11 10 7 6 7 7 9 11 11 13 14 14 14 14 11 7 7 7 7 6 4 4
5 3 4 6 11 14 19 18 19 19 17 15 16 18 3 6 8 11 8 11 10 11 11 12 14 13 9 6 7 9 9 10 12 15 17 16 16 13 10 7 8 6 6 5
3 1 4 4 8 14 9 13 17 15 15 14 6 4 8 9 11 10 12 11 11 11 12 12 12 12 12 11 11 11 12 13 16 18 19 20 18 17 13 9 7 7 6 4
5 4 2 4 6 5 6 6 13 10 14 12 7 10 9 8 10 11 9 8 13 14 14 14 14 14 10 11 13 16 17 18 20 21 20 19 20 20 14 13 9 7 5 6
7 5 2 3 2 10 9 9 4 5 7 10 8 10 8 11 11 9 8 13 12 15 18 13 13 16 18 19 19 19 18 18 19 19 18 18 19 18 15 11 14 8 5 6
9 8 5 2 3 4 2 6 13 6 2 7 8 9 10 13 10 11 17 17 19 15 12 16 19 19 20 19 18 18 19 18 16 19 19 17 18 16 15 13 13 10 10 6
4 3 7 5 4 7 5 9 9 2 3 6 6 6 8 7 6 15 16 16 12 15 20 20 20 19 19 19 18 19 18 18 17 15 18 17 17 17 13 12 7 9 11 5
8 6 5 5 6 7 10 4 4 3 5 5 6 7 7 8 13 15 15 17 20 22 23 20 19 19 18 17 16 19 18 17 16 16 17 17 15 13 10 11 6 5 9 6
2 2 3 5 2 3 3 5 6 6 5 5 5 7 7 12 13 13 16 20 20 21 19 18 18 19 18 16 15 17 17 16 15 15 16 15 13 12 10 6 8 5 5 5
3 4 4 2 3 2 6 5 3 6 4 5 6 7 9 11 12 16 18 19 19 17 18 17 18 18 18 16 16 16 16 15 15 14 14 12 12 8 8 7 6 4 3 6
5 4 4 4 2 3 1 4 5 5 7 7 7 8 10 11 16 16 19 18 17 17 16 16 16 16 18 17 17 15 15 13 12 13 12 9 8 8 6 7 5 5 4 7
3 2 1 2 2 0 5 5 7 8 7 9 11 13 13 14 17 18 17 16 16 17 17 16 16 17 17 17 16 15 12 10 10 9 7 8 4 5 5 5 5 7 3 7
Wind_Direction
204 182 214 233 234 241 252 265 266 260 261 264 191 191 196 218 192 208 209 204 207 210 224 209 202 102 90 71 76 70 55 357 23 83 58 330 261 227 234 245 226 218 199 209
278 216 241 239 232 231 243 252 267 286 328 350 306 267 228 219 232 208 209 207 214 214 216 187 108 107 108 120 118 98 91 53 21 2 269 189 239 271 248 233 244 233 208 206
208 241 221 236 246 261 257 240 274 301 314 327 345 315 266 261 253 259 257 223 207 195 165 129 123 119 106 101 92 89 92 93 38 359 346 332 320 298 291 273 243 237 242 216
230 250 256 266 208 257 299 296 284 261 295 278 346 288 298 257 261 250 237 220 217 186 141 144 137 124 120 121 102 68 26 123 124 52 47 260 244 281 267 260 278 272 246 239
277 262 284 266 252 209 221 246 263 253 251 231 269 267 263 260 281 272 252 224 205 180 145 139 130 130 126 120 109 104 95 62 271 290 270 267 273 257 265 289 285 283 284 267
295 307 291 326 310 306 322 235 288 336 283 272 237 238 274 256 260 298 313 216 137 103 113 117 123 122 117 91 92 128 140 191 237 238 257 250 259 270 277 275 282 285 282 276
317 295 305 312 332 322 341 62 4 343 318 240 238 253 235 277 301 120 38 85 87 96 102 117 127 108 112 125 227 192 166 234 278 246 260 251 249 257 260 261 269 273 277 277
291 313 335 340 325 270 301 149 161 220 236 264 336 238 264 332 354 332 177 141 111 112 111 102 115 142 165 224 200 189 189 222 242 245 236 256 277 251 265 279 294 289 280 269
216 246 324 336 343 4 317 287 195 121 308 343 229 278 277 30 15 12 32 101 128 140 152 175 207 188 206 198 210 191 201 247 264 251 253 284 273 287 291 289 297 302 295 284
222 326 5 327 334 312 315 320 322 19 112 252 234 286 254 30 353 16 3 14 23 21 350 238 237 225 229 212 205 198 209 217 215 178 181 222 251 265 272 306 304 302 301 301
42 103 246 38 249 260 305 335 332 165 154 191 210 246 175 83 4 27 349 345 343 345 303 272 258 251 243 218 197 203 199 202 224 222 222 227 239 242 258 274 304 293 303 316
24 101 271 256 262 274 291 248 222 228 284 236 203 263 267 296 124 3 315 295 290 285 278 267 258 342 354 313 330 277 233 221 217 223 219 234 229 225 216 197 233 285 290 317
353 21 340 297 309 29 33 1 29 358 47 226 255 267 333 353 302 288 277 274 271 319 307 0 11 42 22 349 352 24 27 349 320 288 267 248 252 239 240 228 255 318 319 326
60 273 225 245 288 253 236 267 270 199 265 247 247 283 292 303 296 290 314 12 25 12 8 37 25 21 15 14 16 4 357 354 337 314 292 273 255 254 251 233 221 248 273 300
100 215 270 285 302 304 297 288 269 232 223 233 272 276 279 332 4 41 20 16 4 353 22 16 25 11 358 356 352 344 339 337 335 326 324 317 296 260 252 237 237 241 231 252
19 290 298 267 273 274 276 271 258 268 268 251 250 256 46 16 24 15 3 357 3 16 1 347 341 338 331 315 313 316 312 313 317 312 305 303 300 303 280 247 236 245 242 213
125 331 22 258 325 323 297 248 248 251 261 271 297 10 23 6 5 358 347 359 4 349 338 333 328 318 309 307 315 309 304 300 296 292 289 289 285 289 294 287 240 240 232 212
163 110 104 277 309 242 267 0 32 18 53 48 27 12 9 355 342 333 317 15 345 337 331 320 311 316 328 310 299 293 290 289 286 281 279 273 273 275 279 288 266 255 218 218
183 111 237 221 239 296 316 9 41 51 62 34 9 353 348 345 328 306 23 350 325 318 312 325 338 321 312 305 301 297 292 286 279 277 279 281 274 267 260 274 294 273 229 227
150 138 159 320 261 269 206 13 333 285 216 352 11 356 348 348 330 309 331 324 319 324 341 327 316 309 302 298 297 294 292 286 288 283 278 273 275 279 280 264 269 293 271 218
152 165 220 215 238 281 348 342 315 242 279 351 355 333 337 324 262 301 317 314 339 329 317 315 310 303 301 303 302 292 291 283 285 288 282 279 274 265 271 258 249 276 270 210
177 178 196 191 214 246 360 350 45 317 333 326 337 332 317 312 314 316 331 330 321 317 320 316 308 304 305 301 296 290 287 289 284 282 279 277 278 275 265 258 240 306 307 231
223 165 191 193 222 90 55 78 360 312 313 339 341 319 333 326 325 343 324 317 318 316 314 312 306 302 300 297 290 287 287 289 285 280 278 280 274 264 267 251 253 256 293 251
49 163 210 58 55 85 109 231 293 304 344 341 348 348 334 338 340 324 321 320 315 315 312 309 306 302 301 301 296 286 286 285 282 280 277 274 273 261 248 244 231 220 285 293
231 196 255 136 356 14 86 7 300 357 22 352 2 348 4 349 328 328 321 316 316 311 310 310 306 303 305 307 300 295 291 289 285 282 279 274 273 260 245 225 205 203 230 282
39 358 43 87 67 142 280 328 27 35 358 23 353 5 355 343 334 328 323 319 314 314 316 313 312 311 311 308 307 305 295 290 287 290 289 284 290 269 237 221 218 180 246 300